Time,TemperatureF,DewpointF,PressureIn,WindDirection,WindDirectionDegrees,WindSpeedMPH,WindSpeedGustMPH,Humidity,HourlyPrecipIn,Conditions,Clouds,dailyrainin,SoftwareType,DateUTC
2013-02-08 00:02:00,31.3,30.6,29.94,SSW,203,2.0,15.0,97,0.00,,,0.00,meteohub,2013-02-08 08:02:00,
2013-02-08 00:07:00,31.3,30.6,29.94,South,185,2.0,15.0,97,0.00,,,0.00,meteohub,2013-02-08 08:07:00,
2013-02-08 00:12:00,31.3,30.6,29.94,ESE,108,3.0,13.0,97,0.00,,,0.00,meteohub,2013-02-08 08:12:00,
2013-02-08 00:17:00,31.3,30.6,29.94,ENE,77,3.0,9.0,97,0.00,,,0.00,meteohub,2013-02-08 08:17:00,
2013-02-08 00:22:00,31.1,30.4,29.94,SW,226,6.0,8.0,97,0.00,,,0.00,meteohub,2013-02-08 08:22:00,
2013-02-08 00:27:00,30.7,30.0,29.94,SW,229,8.0,10.0,97,0.00,,,0.00,meteohub,2013-02-08 08:27:00,
2013-02-08 00:32:00,30.7,30.0,29.93,SE,127,3.0,16.0,97,0.00,,,0.00,meteohub,2013-02-08 08:32:00,
2013-02-08 00:37:00,30.7,30.0,29.94,South,177,9.0,16.0,97,0.00,,,0.00,meteohub,2013-02-08 08:37:00,
2013-02-08 00:42:00,30.7,30.0,29.93,ENE,77,4.0,16.0,97,0.00,,,0.00,meteohub,2013-02-08 08:42:00,
2013-02-08 00:47:00,30.6,29.8,29.92,SE,146,5.0,12.0,97,0.00,,,0.00,meteohub,2013-02-08 08:47:00,
2013-02-08 00:52:00,30.6,29.8,29.93,WNW,291,1.0,24.0,97,0.00,,,0.00,meteohub,2013-02-08 08:52:00,
2013-02-08 00:57:00,30.6,29.8,29.93,WSW,243,8.0,24.0,97,0.00,,,0.00,meteohub,2013-02-08 08:57:00,
2013-02-08 01:03:00,30.7,30.0,29.93,SSW,207,1.0,15.0,97,0.00,,,0.00,meteohub,2013-02-08 09:03:00,
2013-02-08 01:08:00,30.7,30.0,29.93,SSE,158,6.0,12.0,97,0.00,,,0.00,meteohub,2013-02-08 09:08:00,
2013-02-08 01:13:00,30.7,30.0,29.93,NE,47,5.0,16.0,97,0.00,,,0.00,meteohub,2013-02-08 09:13:00,
2013-02-08 01:18:00,30.7,30.0,29.92,NNE,32,5.0,16.0,97,0.00,,,0.00,meteohub,2013-02-08 09:18:00,
2013-02-08 01:23:00,30.6,29.8,29.92,NW,314,1.0,16.0,97,0.00,,,0.00,meteohub,2013-02-08 09:23:00,
2013-02-08 01:28:00,30.4,29.7,29.91,NNW,328,3.0,16.0,97,0.00,,,0.00,meteohub,2013-02-08 09:28:00,
2013-02-08 01:33:00,30.4,29.7,29.92,WNW,287,3.0,16.0,97,0.00,,,0.00,meteohub,2013-02-08 09:33:00,
2013-02-08 01:38:00,30.6,29.8,29.91,ESE,114,0.0,14.0,97,0.00,,,0.00,meteohub,2013-02-08 09:38:00,
2013-02-08 01:43:00,30.7,30.0,29.91,SW,226,3.0,9.0,97,0.00,,,0.00,meteohub,2013-02-08 09:43:00,
2013-02-08 01:48:00,30.9,30.2,29.91,ESE,118,3.0,9.0,97,0.00,,,0.00,meteohub,2013-02-08 09:48:00,
2013-02-08 01:53:00,30.9,30.2,29.91,SW,221,0.0,10.0,97,0.00,,,0.00,meteohub,2013-02-08 09:53:00,
2013-02-08 01:58:00,30.9,30.2,29.91,SSE,163,2.0,15.0,97,0.00,,,0.00,meteohub,2013-02-08 09:58:00,
2013-02-08 02:03:00,30.7,30.0,29.91,SE,135,4.0,15.0,97,0.00,,,0.00,meteohub,2013-02-08 10:03:00,
2013-02-08 02:08:00,30.4,29.7,29.91,SW,217,5.0,15.0,97,0.00,,,0.00,meteohub,2013-02-08 10:08:00,
2013-02-08 02:13:00,30.0,29.3,29.90,ESE,110,6.0,12.0,97,0.00,,,0.00,meteohub,2013-02-08 10:13:00,
2013-02-08 02:18:00,29.8,29.1,29.90,SSE,150,3.0,12.0,97,0.00,,,0.00,meteohub,2013-02-08 10:18:00,
2013-02-08 02:23:00,29.7,28.9,29.90,SW,215,5.0,12.0,97,0.00,,,0.00,meteohub,2013-02-08 10:23:00,
2013-02-08 02:28:00,29.5,28.8,29.90,South,191,2.0,11.0,97,0.00,,,0.00,meteohub,2013-02-08 10:28:00,
2013-02-08 02:33:00,29.3,28.6,29.89,SSW,212,4.0,11.0,97,0.00,,,0.00,meteohub,2013-02-08 10:33:00,
2013-02-08 02:38:00,29.1,28.4,29.89,ENE,75,7.0,11.0,97,0.00,,,0.00,meteohub,2013-02-08 10:38:00,
2013-02-08 02:44:00,28.9,27.9,29.90,SE,134,6.0,11.0,96,0.00,,,0.00,meteohub,2013-02-08 10:44:00,
2013-02-08 02:49:00,28.9,28.2,29.89,SSE,160,4.0,12.0,97,0.00,,,0.00,meteohub,2013-02-08 10:49:00,
2013-02-08 02:54:00,29.1,28.4,29.89,SW,228,4.0,13.0,97,0.00,,,0.00,meteohub,2013-02-08 10:54:00,
2013-02-08 02:59:00,29.3,28.6,29.88,North,353,4.0,13.0,97,0.00,,,0.00,meteohub,2013-02-08 10:59:00,
2013-02-08 03:04:00,29.5,28.8,29.89,East,98,11.0,14.0,97,0.00,,,0.00,meteohub,2013-02-08 11:04:00,
2013-02-08 03:09:00,29.5,28.8,29.90,SSW,200,2.0,17.0,97,0.00,,,0.00,meteohub,2013-02-08 11:09:00,
2013-02-08 03:14:00,29.7,28.9,29.89,SW,219,3.0,17.0,97,0.00,,,0.00,meteohub,2013-02-08 11:14:00,
2013-02-08 03:19:00,29.5,28.8,29.89,SSW,211,7.0,17.0,97,0.00,,,0.00,meteohub,2013-02-08 11:19:00,
2013-02-08 03:24:00,29.3,28.6,29.88,SSE,148,3.0,16.0,97,0.00,,,0.00,meteohub,2013-02-08 11:24:00,
2013-02-08 03:29:00,29.3,28.6,29.89,NW,308,5.0,16.0,97,0.00,,,0.00,meteohub,2013-02-08 11:29:00,
2013-02-08 03:34:00,29.3,28.6,29.89,SSW,200,7.0,14.0,97,0.00,,,0.00,meteohub,2013-02-08 11:34:00,
2013-02-08 03:39:00,29.1,28.4,29.89,South,185,10.0,14.0,97,0.00,,,0.00,meteohub,2013-02-08 11:39:00,
2013-02-08 03:44:00,28.9,28.2,29.89,SSW,195,6.0,13.0,97,0.00,,,0.00,meteohub,2013-02-08 11:44:00,
2013-02-08 03:49:00,28.6,27.5,29.89,SW,231,6.0,19.0,96,0.00,,,0.00,meteohub,2013-02-08 11:49:00,
2013-02-08 03:54:00,28.6,27.5,29.88,SW,235,3.0,19.0,96,0.00,,,0.00,meteohub,2013-02-08 11:54:00,
2013-02-08 04:00:00,28.4,27.3,29.89,WNW,295,3.0,19.0,96,0.00,,,0.00,meteohub,2013-02-08 12:00:00,
2013-02-08 04:05:00,28.2,27.1,29.89,SW,226,8.0,17.0,96,0.00,,,0.00,meteohub,2013-02-08 12:05:00,
2013-02-08 04:10:00,28.0,27.0,29.89,ESE,113,6.0,15.0,96,0.00,,,0.00,meteohub,2013-02-08 12:10:00,
2013-02-08 04:15:00,27.9,26.8,29.88,SE,141,8.0,15.0,96,0.00,,,0.00,meteohub,2013-02-08 12:15:00,
2013-02-08 04:20:00,27.9,26.8,29.88,ESE,120,8.0,17.0,96,0.00,,,0.00,meteohub,2013-02-08 12:20:00,
2013-02-08 04:25:00,27.7,26.6,29.89,SE,131,2.0,17.0,96,0.00,,,0.00,meteohub,2013-02-08 12:25:00,
2013-02-08 04:30:00,27.3,26.4,29.89,SW,234,7.0,16.0,96,0.00,,,0.00,meteohub,2013-02-08 12:30:00,
2013-02-08 04:35:00,27.1,26.2,29.89,SSW,207,3.0,21.0,96,0.00,,,0.00,meteohub,2013-02-08 12:35:00,
2013-02-08 04:40:00,27.0,26.1,29.89,SSE,165,2.0,21.0,96,0.00,,,0.00,meteohub,2013-02-08 12:40:00,
2013-02-08 04:45:00,27.0,26.1,29.89,SSW,201,5.0,18.0,96,0.00,,,0.00,meteohub,2013-02-08 12:45:00,
2013-02-08 04:50:00,26.8,25.9,29.89,WSW,246,7.0,17.0,96,0.00,,,0.00,meteohub,2013-02-08 12:50:00,
2013-02-08 04:56:00,26.6,25.7,29.89,WSW,257,7.0,17.0,96,0.00,,,0.00,meteohub,2013-02-08 12:56:00,
2013-02-08 05:01:00,26.2,25.0,29.89,SSW,198,5.0,17.0,95,0.00,,,0.00,meteohub,2013-02-08 13:01:00,
2013-02-08 05:06:00,26.1,24.8,29.89,West,278,3.0,17.0,95,0.00,,,0.00,meteohub,2013-02-08 13:06:00,
2013-02-08 05:11:00,25.9,24.6,29.89,SW,217,8.0,17.0,95,0.00,,,0.00,meteohub,2013-02-08 13:11:00,
2013-02-08 05:16:00,25.9,24.6,29.89,East,101,8.0,17.0,95,0.00,,,0.00,meteohub,2013-02-08 13:16:00,
2013-02-08 05:21:00,26.1,25.2,29.90,SW,229,3.0,17.0,96,0.00,,,0.00,meteohub,2013-02-08 13:21:00,
2013-02-08 05:26:00,26.1,25.2,29.90,SSW,205,9.0,14.0,96,0.00,,,0.00,meteohub,2013-02-08 13:26:00,
2013-02-08 05:31:00,26.1,25.2,29.90,SSE,163,2.0,13.0,96,0.00,,,0.00,meteohub,2013-02-08 13:31:00,
2013-02-08 05:36:00,26.1,25.2,29.90,SE,135,5.0,13.0,96,0.00,,,0.00,meteohub,2013-02-08 13:36:00,
2013-02-08 05:41:00,26.1,25.2,29.90,SW,228,3.0,13.0,96,0.00,,,0.00,meteohub,2013-02-08 13:41:00,
2013-02-08 05:46:00,26.1,25.2,29.90,SSW,201,7.0,13.0,96,0.00,,,0.00,meteohub,2013-02-08 13:46:00,
2013-02-08 05:51:00,26.1,25.2,29.90,SW,222,3.0,13.0,96,0.00,,,0.00,meteohub,2013-02-08 13:51:00,
2013-02-08 05:56:00,25.9,24.6,29.91,SE,139,6.0,16.0,95,0.00,,,0.00,meteohub,2013-02-08 13:56:00,
2013-02-08 06:02:00,25.5,24.3,29.91,ENE,77,5.0,16.0,95,0.00,,,0.00,meteohub,2013-02-08 14:02:00,
2013-02-08 06:07:00,25.5,24.3,29.91,South,180,5.0,16.0,95,0.00,,,0.00,meteohub,2013-02-08 14:07:00,
2013-02-08 06:12:00,25.3,24.1,29.91,West,266,5.0,14.0,95,0.00,,,0.00,meteohub,2013-02-08 14:12:00,
2013-02-08 06:17:00,25.0,23.7,29.91,SE,141,7.0,20.0,95,0.00,,,0.00,meteohub,2013-02-08 14:17:00,
2013-02-08 06:22:00,24.6,23.4,29.91,SSE,158,11.0,20.0,95,0.00,,,0.00,meteohub,2013-02-08 14:22:00,
2013-02-08 06:27:00,25.0,23.7,29.91,WSW,250,6.0,20.0,95,0.00,,,0.00,meteohub,2013-02-08 14:27:00,
2013-02-08 06:32:00,25.0,23.7,29.92,SSW,207,5.0,19.0,95,0.00,,,0.00,meteohub,2013-02-08 14:32:00,
2013-02-08 06:37:00,25.2,24.3,29.92,SSE,165,3.0,18.0,96,0.00,,,0.00,meteohub,2013-02-08 14:37:00,
2013-02-08 06:42:00,25.3,24.4,29.92,SE,146,7.0,18.0,96,0.00,,,0.00,meteohub,2013-02-08 14:42:00,
2013-02-08 06:47:00,25.5,24.6,29.92,WSW,256,8.0,19.0,96,0.00,,,0.00,meteohub,2013-02-08 14:47:00,
2013-02-08 06:52:00,25.7,24.8,29.93,SE,136,3.0,19.0,96,0.00,,,0.00,meteohub,2013-02-08 14:52:00,
2013-02-08 06:57:00,25.9,25.0,29.93,SSE,165,5.0,19.0,96,0.00,,,0.00,meteohub,2013-02-08 14:57:00,
2013-02-08 07:02:00,25.9,25.0,29.92,SE,146,8.0,18.0,96,0.00,,,0.00,meteohub,2013-02-08 15:02:00,
2013-02-08 07:07:00,25.9,25.0,29.93,SE,125,5.0,14.0,96,0.00,,,0.00,meteohub,2013-02-08 15:07:00,
2013-02-08 07:12:00,26.1,25.2,29.93,SSE,160,9.0,14.0,96,0.00,,,0.00,meteohub,2013-02-08 15:12:00,
2013-02-08 07:17:00,26.1,25.2,29.93,WSW,256,1.0,16.0,96,0.00,,,0.00,meteohub,2013-02-08 15:17:00,
2013-02-08 07:22:00,26.1,25.2,29.93,SW,235,6.0,16.0,96,0.00,,,0.00,meteohub,2013-02-08 15:22:00,
2013-02-08 07:27:00,26.2,25.3,29.94,SSW,205,7.0,16.0,96,0.00,,,0.00,meteohub,2013-02-08 15:27:00,
2013-02-08 07:32:00,26.2,25.3,29.94,East,84,10.0,15.0,96,0.00,,,0.00,meteohub,2013-02-08 15:32:00,
2013-02-08 07:37:00,26.2,25.3,29.94,SE,131,3.0,15.0,96,0.00,,,0.00,meteohub,2013-02-08 15:37:00,
2013-02-08 07:42:00,26.2,25.3,29.94,South,191,6.0,12.0,96,0.00,,,0.00,meteohub,2013-02-08 15:42:00,
2013-02-08 07:47:00,26.4,25.5,29.94,SSW,203,3.0,12.0,96,0.00,,,0.00,meteohub,2013-02-08 15:47:00,
2013-02-08 07:52:00,26.6,25.7,29.95,SW,215,3.0,12.0,96,0.00,,,0.00,meteohub,2013-02-08 15:52:00,
2013-02-08 07:57:00,26.4,25.5,29.95,SW,226,3.0,11.0,96,0.00,,,0.00,meteohub,2013-02-08 15:57:00,
2013-02-08 08:02:00,26.4,25.5,29.96,WSW,245,3.0,11.0,96,0.00,,,0.00,meteohub,2013-02-08 16:02:00,
2013-02-08 08:07:00,26.6,25.7,29.95,ESE,117,2.0,11.0,96,0.00,,,0.00,meteohub,2013-02-08 16:07:00,
2013-02-08 08:12:00,26.6,25.7,29.95,SW,221,5.0,10.0,96,0.00,,,0.00,meteohub,2013-02-08 16:12:00,
2013-02-08 08:17:00,26.4,25.5,29.95,SE,132,4.0,8.0,96,0.00,,,0.00,meteohub,2013-02-08 16:17:00,
2013-02-08 08:23:00,26.6,25.7,29.96,SW,231,2.0,8.0,96,0.00,,,0.00,meteohub,2013-02-08 16:23:00,
2013-02-08 08:28:00,26.4,25.5,29.96,East,84,3.0,9.0,96,0.00,,,0.00,meteohub,2013-02-08 16:28:00,
2013-02-08 08:33:00,26.4,25.5,29.96,WSW,250,3.0,10.0,96,0.00,,,0.00,meteohub,2013-02-08 16:33:00,
2013-02-08 08:38:00,26.4,25.5,29.96,South,179,6.0,10.0,96,0.00,,,0.00,meteohub,2013-02-08 16:38:00,
2013-02-08 08:43:00,26.4,25.5,29.96,SE,125,5.0,9.0,96,0.00,,,0.00,meteohub,2013-02-08 16:43:00,
2013-02-08 08:48:00,26.4,25.5,29.96,SE,129,3.0,9.0,96,0.00,,,0.00,meteohub,2013-02-08 16:48:00,
2013-02-08 08:53:00,26.2,25.3,29.96,SE,135,4.0,11.0,96,0.00,,,0.00,meteohub,2013-02-08 16:53:00,
2013-02-08 08:58:00,26.2,25.3,29.96,ESE,106,6.0,11.0,96,0.00,,,0.00,meteohub,2013-02-08 16:58:00,
2013-02-08 09:03:00,26.2,25.3,29.96,SE,127,1.0,11.0,96,0.00,,,0.00,meteohub,2013-02-08 17:03:00,
2013-02-08 09:09:00,26.2,25.3,29.96,WSW,242,4.0,10.0,96,0.00,,,0.00,meteohub,2013-02-08 17:09:00,
2013-02-08 09:14:00,26.4,25.5,29.96,ESE,105,3.0,10.0,96,0.00,,,0.00,meteohub,2013-02-08 17:14:00,
2013-02-08 09:19:00,26.2,25.3,29.96,SW,226,3.0,10.0,96,0.00,,,0.00,meteohub,2013-02-08 17:19:00,
2013-02-08 09:24:00,26.4,25.2,29.96,ESE,106,1.0,9.0,95,0.00,,,0.00,meteohub,2013-02-08 17:24:00,
2013-02-08 09:29:00,26.4,25.5,29.96,SSE,167,2.0,9.0,96,0.00,,,0.00,meteohub,2013-02-08 17:29:00,
2013-02-08 09:34:00,26.4,25.5,29.96,SSE,158,2.0,8.0,96,0.00,,,0.00,meteohub,2013-02-08 17:34:00,
2013-02-08 09:40:00,26.2,25.0,29.96,ESE,110,9.0,9.0,95,0.00,,,0.00,meteohub,2013-02-08 17:40:00,
2013-02-08 09:45:00,26.2,25.0,29.96,SSE,148,2.0,9.0,95,0.00,,,0.00,meteohub,2013-02-08 17:45:00,
2013-02-08 09:50:00,26.1,24.8,29.96,SW,226,2.0,9.0,95,0.00,,,0.00,meteohub,2013-02-08 17:50:00,
2013-02-08 09:55:00,26.2,25.3,29.96,SSW,197,3.0,9.0,96,0.00,,,0.00,meteohub,2013-02-08 17:55:00,
2013-02-08 10:00:00,26.4,25.5,29.96,SSE,165,2.0,9.0,96,0.00,,,0.00,meteohub,2013-02-08 18:00:00,
2013-02-08 10:05:00,26.4,25.5,29.96,East,93,7.0,7.0,96,0.00,,,0.00,meteohub,2013-02-08 18:05:00,
2013-02-08 10:10:00,26.6,25.7,29.96,ESE,108,2.0,8.0,96,0.00,,,0.00,meteohub,2013-02-08 18:10:00,
2013-02-08 10:15:00,26.8,25.9,29.96,SSE,148,1.0,8.0,96,0.00,,,0.00,meteohub,2013-02-08 18:15:00,
2013-02-08 10:20:00,26.8,25.9,29.96,SW,235,2.0,8.0,96,0.00,,,0.00,meteohub,2013-02-08 18:20:00,
2013-02-08 10:26:00,27.0,26.1,29.96,SE,134,1.0,6.0,96,0.00,,,0.00,meteohub,2013-02-08 18:26:00,
2013-02-08 10:31:00,26.8,25.9,29.96,SSW,196,0.0,8.0,96,0.00,,,0.00,meteohub,2013-02-08 18:31:00,
2013-02-08 10:37:00,26.8,25.9,29.95,SE,145,3.0,8.0,96,0.00,,,0.00,meteohub,2013-02-08 18:37:00,
2013-02-08 10:42:00,26.8,25.9,29.95,SE,141,1.0,10.0,96,0.00,,,0.00,meteohub,2013-02-08 18:42:00,
2013-02-08 10:47:00,26.8,25.9,29.95,South,190,5.0,10.0,96,0.00,,,0.00,meteohub,2013-02-08 18:47:00,
2013-02-08 10:52:00,27.0,26.1,29.95,SE,129,8.0,10.0,96,0.00,,,0.00,meteohub,2013-02-08 18:52:00,
2013-02-08 10:57:00,27.0,26.1,29.95,South,188,4.0,10.0,96,0.00,,,0.00,meteohub,2013-02-08 18:57:00,
2013-02-08 11:02:00,27.0,26.1,29.95,SE,125,6.0,11.0,96,0.00,,,0.00,meteohub,2013-02-08 19:02:00,
2013-02-08 11:07:00,27.0,26.1,29.95,NNE,32,4.0,18.0,96,0.00,,,0.00,meteohub,2013-02-08 19:07:00,
2013-02-08 11:12:00,27.0,26.1,29.95,South,172,3.0,18.0,96,0.00,,,0.00,meteohub,2013-02-08 19:12:00,
2013-02-08 11:18:00,27.0,26.1,29.96,SSE,166,2.0,18.0,96,0.00,,,0.00,meteohub,2013-02-08 19:18:00,
2013-02-08 11:23:00,27.1,26.2,29.95,SW,219,2.0,11.0,96,0.00,,,0.00,meteohub,2013-02-08 19:23:00,
2013-02-08 11:28:00,27.1,26.2,29.96,SW,221,1.0,14.0,96,0.00,,,0.00,meteohub,2013-02-08 19:28:00,
2013-02-08 11:33:00,27.0,26.1,29.96,East,89,3.0,14.0,96,0.00,,,0.00,meteohub,2013-02-08 19:33:00,
2013-02-08 11:38:00,27.0,26.1,29.96,SW,229,2.0,14.0,96,0.00,,,0.00,meteohub,2013-02-08 19:38:00,
2013-02-08 11:43:00,27.0,26.1,29.96,West,266,6.0,7.0,96,0.00,,,0.00,meteohub,2013-02-08 19:43:00,
2013-02-08 11:48:00,26.8,25.9,29.95,West,259,2.0,8.0,96,0.00,,,0.00,meteohub,2013-02-08 19:48:00,
2013-02-08 11:53:00,26.6,25.3,29.95,ESE,106,1.0,9.0,95,0.00,,,0.00,meteohub,2013-02-08 19:53:00,
2013-02-08 11:59:00,26.6,25.3,29.95,NE,43,1.0,9.0,95,0.00,,,0.00,meteohub,2013-02-08 19:59:00,
2013-02-08 12:04:00,26.6,25.3,29.95,East,98,5.0,9.0,95,0.00,,,0.00,meteohub,2013-02-08 20:04:00,
2013-02-08 12:09:00,26.6,25.7,29.95,ESE,111,4.0,9.0,96,0.00,,,0.00,meteohub,2013-02-08 20:09:00,
2013-02-08 12:14:00,26.6,25.3,29.94,SSW,210,1.0,9.0,95,0.00,,,0.00,meteohub,2013-02-08 20:14:00,
2013-02-08 12:19:00,26.8,25.9,29.94,SSE,166,1.0,8.0,96,0.00,,,0.00,meteohub,2013-02-08 20:19:00,
2013-02-08 12:24:00,27.0,26.1,29.94,ESE,103,3.0,7.0,96,0.00,,,0.00,meteohub,2013-02-08 20:24:00,
2013-02-08 12:29:00,27.0,25.7,29.94,SW,225,5.0,7.0,95,0.00,,,0.00,meteohub,2013-02-08 20:29:00,
2013-02-08 12:34:00,26.8,25.5,29.94,SE,125,2.0,8.0,95,0.00,,,0.00,meteohub,2013-02-08 20:34:00,
2013-02-08 12:39:00,26.6,25.3,29.93,SE,126,2.0,8.0,95,0.00,,,0.00,meteohub,2013-02-08 20:39:00,
2013-02-08 12:44:00,26.4,25.2,29.93,South,180,3.0,11.0,95,0.00,,,0.00,meteohub,2013-02-08 20:44:00,
2013-02-08 12:49:00,26.4,25.2,29.93,South,173,5.0,11.0,95,0.00,,,0.00,meteohub,2013-02-08 20:49:00,
2013-02-08 12:54:00,26.4,25.2,29.93,East,101,3.0,11.0,95,0.00,,,0.00,meteohub,2013-02-08 20:54:00,
2013-02-08 12:59:00,26.4,25.2,29.92,SW,217,4.0,8.0,95,0.00,,,0.00,meteohub,2013-02-08 20:59:00,
2013-02-08 13:05:00,26.4,25.2,29.92,SSW,210,5.0,9.0,95,0.00,,,0.00,meteohub,2013-02-08 21:05:00,
2013-02-08 13:10:00,26.4,25.2,29.92,North,355,5.0,10.0,95,0.00,,,0.00,meteohub,2013-02-08 21:10:00,
2013-02-08 13:15:00,26.2,25.0,29.92,SSE,156,4.0,10.0,95,0.00,,,0.00,meteohub,2013-02-08 21:15:00,
2013-02-08 13:20:00,26.2,25.0,29.92,SE,146,3.0,14.0,95,0.00,,,0.00,meteohub,2013-02-08 21:20:00,
2013-02-08 13:25:00,26.2,25.0,29.91,SSE,153,5.0,14.0,95,0.00,,,0.00,meteohub,2013-02-08 21:25:00,
2013-02-08 13:30:00,26.2,25.0,29.92,SSE,166,3.0,14.0,95,0.00,,,0.00,meteohub,2013-02-08 21:30:00,
2013-02-08 13:35:00,26.2,25.0,29.92,ESE,116,6.0,14.0,95,0.00,,,0.00,meteohub,2013-02-08 21:35:00,
2013-02-08 13:40:00,26.2,25.0,29.91,South,170,7.0,12.0,95,0.00,,,0.00,meteohub,2013-02-08 21:40:00,
2013-02-08 13:45:00,26.2,25.0,29.91,East,94,4.0,15.0,95,0.00,,,0.00,meteohub,2013-02-08 21:45:00,
2013-02-08 13:50:00,26.4,25.2,29.92,WNW,302,2.0,15.0,95,0.00,,,0.00,meteohub,2013-02-08 21:50:00,
2013-02-08 13:55:00,26.4,25.2,29.92,ESE,102,2.0,15.0,95,0.00,,,0.00,meteohub,2013-02-08 21:55:00,
2013-02-08 14:01:00,26.6,25.3,29.91,WSW,245,2.0,13.0,95,0.00,,,0.00,meteohub,2013-02-08 22:01:00,
2013-02-08 14:06:00,26.4,25.2,29.92,ESE,116,5.0,10.0,95,0.00,,,0.00,meteohub,2013-02-08 22:06:00,
2013-02-08 14:11:00,26.4,25.2,29.92,East,86,7.0,13.0,95,0.00,,,0.00,meteohub,2013-02-08 22:11:00,
2013-02-08 14:16:00,26.4,25.2,29.92,ESE,103,3.0,13.0,95,0.00,,,0.00,meteohub,2013-02-08 22:16:00,
2013-02-08 14:21:00,26.6,25.3,29.92,East,82,4.0,12.0,95,0.00,,,0.00,meteohub,2013-02-08 22:21:00,
2013-02-08 14:26:00,26.4,25.2,29.92,SW,214,6.0,14.0,95,0.00,,,0.00,meteohub,2013-02-08 22:26:00,
2013-02-08 14:31:00,26.2,25.0,29.92,SE,125,3.0,14.0,95,0.00,,,0.00,meteohub,2013-02-08 22:31:00,
2013-02-08 14:37:00,26.2,25.0,29.92,NNE,16,4.0,12.0,95,0.00,,,0.00,meteohub,2013-02-08 22:37:00,
2013-02-08 14:42:00,26.2,25.0,29.92,SSE,167,3.0,11.0,95,0.00,,,0.00,meteohub,2013-02-08 22:42:00,
2013-02-08 14:47:00,26.4,25.2,29.92,SSW,204,1.0,10.0,95,0.00,,,0.00,meteohub,2013-02-08 22:47:00,
2013-02-08 14:52:00,26.2,25.0,29.92,SE,132,5.0,10.0,95,0.00,,,0.00,meteohub,2013-02-08 22:52:00,
2013-02-08 14:57:00,26.1,24.8,29.92,ESE,120,4.0,10.0,95,0.00,,,0.00,meteohub,2013-02-08 22:57:00,
2013-02-08 15:02:00,26.1,24.8,29.93,ESE,111,9.0,11.0,95,0.00,,,0.00,meteohub,2013-02-08 23:02:00,
2013-02-08 15:07:00,25.9,24.6,29.92,SSW,197,2.0,11.0,95,0.00,,,0.00,meteohub,2013-02-08 23:07:00,
2013-02-08 15:12:00,25.9,24.6,29.92,SSE,154,7.0,11.0,95,0.00,,,0.00,meteohub,2013-02-08 23:12:00,
2013-02-08 15:17:00,25.9,24.6,29.93,SSW,198,2.0,10.0,95,0.00,,,0.00,meteohub,2013-02-08 23:17:00,
2013-02-08 15:22:00,26.1,24.8,29.93,ESE,120,1.0,10.0,95,0.00,,,0.00,meteohub,2013-02-08 23:22:00,
2013-02-08 15:27:00,26.1,24.8,29.93,SW,215,1.0,8.0,95,0.00,,,0.00,meteohub,2013-02-08 23:27:00,
2013-02-08 15:32:00,26.1,24.8,29.93,SSE,155,4.0,7.0,95,0.00,,,0.00,meteohub,2013-02-08 23:32:00,
2013-02-08 15:37:00,25.9,24.6,29.93,SSE,150,3.0,10.0,95,0.00,,,0.00,meteohub,2013-02-08 23:37:00,
2013-02-08 15:42:00,25.9,25.0,29.93,SSW,195,1.0,10.0,96,0.00,,,0.00,meteohub,2013-02-08 23:42:00,
2013-02-08 15:47:00,25.9,25.0,29.93,South,174,0.0,10.0,96,0.00,,,0.00,meteohub,2013-02-08 23:47:00,
2013-02-08 15:52:00,26.1,25.2,29.93,East,85,1.0,7.0,96,0.00,,,0.00,meteohub,2013-02-08 23:52:00,
2013-02-08 15:57:00,25.9,24.6,29.94,SW,217,1.0,7.0,95,0.00,,,0.00,meteohub,2013-02-08 23:57:00,
2013-02-08 16:02:00,25.7,24.4,29.93,SW,236,1.0,8.0,95,0.00,,,0.00,meteohub,2013-02-09 00:02:00,
2013-02-08 16:07:00,25.5,24.3,29.93,ESE,103,5.0,8.0,95,0.00,,,0.00,meteohub,2013-02-09 00:07:00,
2013-02-08 16:12:00,25.3,24.1,29.93,SSE,156,0.0,9.0,95,0.00,,,0.00,meteohub,2013-02-09 00:12:00,
2013-02-08 16:17:00,25.2,23.9,29.93,ESE,122,2.0,9.0,95,0.00,,,0.00,meteohub,2013-02-09 00:17:00,
2013-02-08 16:22:00,25.0,23.7,29.94,SSW,209,3.0,10.0,95,0.00,,,0.00,meteohub,2013-02-09 00:22:00,
2013-02-08 16:27:00,25.0,23.7,29.94,WSW,255,2.0,10.0,95,0.00,,,0.00,meteohub,2013-02-09 00:27:00,
2013-02-08 16:32:00,25.0,23.7,29.94,SSE,150,2.0,10.0,95,0.00,,,0.00,meteohub,2013-02-09 00:32:00,
2013-02-08 16:37:00,25.2,23.9,29.94,SW,228,2.0,7.0,95,0.00,,,0.00,meteohub,2013-02-09 00:37:00,
2013-02-08 16:42:00,25.2,23.9,29.94,South,186,1.0,7.0,95,0.00,,,0.00,meteohub,2013-02-09 00:42:00,
2013-02-08 16:47:00,25.2,23.9,29.94,SSE,159,2.0,5.0,95,0.00,,,0.00,meteohub,2013-02-09 00:47:00,
2013-02-08 16:52:00,25.3,24.1,29.93,SE,139,3.0,6.0,95,0.00,,,0.00,meteohub,2013-02-09 00:52:00,
2013-02-08 16:57:00,25.3,24.1,29.94,East,89,1.0,7.0,95,0.00,,,0.00,meteohub,2013-02-09 00:57:00,
2013-02-08 17:02:00,25.3,24.4,29.93,ENE,60,7.0,7.0,96,0.00,,,0.00,meteohub,2013-02-09 01:02:00,
2013-02-08 17:07:00,25.3,24.4,29.93,East,79,4.0,7.0,96,0.00,,,0.00,meteohub,2013-02-09 01:07:00,
2013-02-08 17:12:00,25.3,24.4,29.93,SE,134,1.0,9.0,96,0.00,,,0.00,meteohub,2013-02-09 01:12:00,
2013-02-08 17:17:00,25.3,24.4,29.94,SE,139,2.0,9.0,96,0.00,,,0.00,meteohub,2013-02-09 01:17:00,
2013-02-08 17:22:00,25.3,24.1,29.94,SSE,150,1.0,9.0,95,0.00,,,0.00,meteohub,2013-02-09 01:22:00,
2013-02-08 17:27:00,25.2,23.9,29.94,SE,135,2.0,10.0,95,0.00,,,0.00,meteohub,2013-02-09 01:27:00,
2013-02-08 17:32:00,25.2,23.9,29.94,SSE,153,2.0,10.0,95,0.00,,,0.00,meteohub,2013-02-09 01:32:00,
2013-02-08 17:38:00,25.2,23.9,29.94,SSW,198,2.0,10.0,95,0.00,,,0.00,meteohub,2013-02-09 01:38:00,
2013-02-08 17:43:00,25.0,23.7,29.94,East,85,3.0,10.0,95,0.00,,,0.00,meteohub,2013-02-09 01:43:00,
2013-02-08 17:48:00,25.0,23.7,29.94,SSE,160,2.0,8.0,95,0.00,,,0.00,meteohub,2013-02-09 01:48:00,
2013-02-08 17:53:00,25.0,24.1,29.94,ESE,113,2.0,8.0,96,0.00,,,0.00,meteohub,2013-02-09 01:53:00,
2013-02-08 17:58:00,25.2,24.3,29.95,WNW,292,2.0,12.0,96,0.00,,,0.00,meteohub,2013-02-09 01:58:00,
2013-02-08 18:03:00,25.2,24.3,29.95,East,89,1.0,12.0,96,0.00,,,0.00,meteohub,2013-02-09 02:03:00,
2013-02-08 18:08:00,25.2,24.3,29.95,ESE,123,3.0,13.0,96,0.00,,,0.00,meteohub,2013-02-09 02:08:00,
2013-02-08 18:13:00,25.2,24.3,29.95,ESE,113,4.0,13.0,96,0.00,,,0.00,meteohub,2013-02-09 02:13:00,
2013-02-08 18:18:00,25.2,23.9,29.95,SSE,154,3.0,13.0,95,0.00,,,0.00,meteohub,2013-02-09 02:18:00,
2013-02-08 18:23:00,25.2,24.3,29.95,SSE,158,3.0,7.0,96,0.00,,,0.00,meteohub,2013-02-09 02:23:00,
2013-02-08 18:28:00,25.2,24.3,29.96,SSE,158,3.0,6.0,96,0.00,,,0.00,meteohub,2013-02-09 02:28:00,
2013-02-08 18:33:00,25.0,23.7,29.96,SSE,150,8.0,12.0,95,0.00,,,0.00,meteohub,2013-02-09 02:33:00,
2013-02-08 18:39:00,25.0,24.1,29.96,SW,226,2.0,12.0,96,0.00,,,0.00,meteohub,2013-02-09 02:39:00,
2013-02-08 18:44:00,25.0,24.1,29.96,SSW,200,3.0,8.0,96,0.00,,,0.00,meteohub,2013-02-09 02:44:00,
2013-02-08 18:49:00,25.0,24.1,29.96,SW,217,1.0,8.0,96,0.00,,,0.00,meteohub,2013-02-09 02:49:00,
2013-02-08 18:54:00,25.0,23.7,29.96,SE,136,5.0,7.0,95,0.00,,,0.00,meteohub,2013-02-09 02:54:00,
2013-02-08 18:59:00,25.0,23.7,29.96,SSE,162,5.0,8.0,95,0.00,,,0.00,meteohub,2013-02-09 02:59:00,
2013-02-08 19:04:00,24.8,23.5,29.96,SSE,162,4.0,9.0,95,0.00,,,0.00,meteohub,2013-02-09 03:04:00,
2013-02-08 19:09:00,24.6,23.4,29.96,ESE,113,3.0,9.0,95,0.00,,,0.00,meteohub,2013-02-09 03:09:00,
2013-02-08 19:14:00,24.8,23.5,29.96,SW,219,0.0,9.0,95,0.00,,,0.00,meteohub,2013-02-09 03:14:00,
2013-02-08 19:19:00,24.8,23.9,29.96,ESE,106,4.0,9.0,96,0.00,,,0.00,meteohub,2013-02-09 03:19:00,
2013-02-08 19:24:00,24.8,23.9,29.96,East,91,2.0,10.0,96,0.00,,,0.00,meteohub,2013-02-09 03:24:00,
2013-02-08 19:29:00,24.8,23.5,29.96,SE,134,3.0,10.0,95,0.00,,,0.00,meteohub,2013-02-09 03:29:00,
2013-02-08 19:35:00,24.8,23.5,29.96,South,169,0.0,10.0,95,0.00,,,0.00,meteohub,2013-02-09 03:35:00,
2013-02-08 19:40:00,24.8,23.5,29.96,ESE,113,3.0,9.0,95,0.00,,,0.00,meteohub,2013-02-09 03:40:00,
2013-02-08 19:45:00,24.6,23.4,29.96,East,98,3.0,7.0,95,0.00,,,0.00,meteohub,2013-02-09 03:45:00,
2013-02-08 19:50:00,24.6,23.4,29.96,ESE,108,2.0,9.0,95,0.00,,,0.00,meteohub,2013-02-09 03:50:00,
2013-02-08 19:55:00,24.4,23.2,29.96,SSE,149,1.0,8.0,95,0.00,,,0.00,meteohub,2013-02-09 03:55:00,
2013-02-08 20:00:00,24.4,23.2,29.96,ESE,113,1.0,6.0,95,0.00,,,0.00,meteohub,2013-02-09 04:00:00,
2013-02-08 20:05:00,24.4,23.2,29.96,South,187,1.0,6.0,95,0.00,,,0.00,meteohub,2013-02-09 04:05:00,
2013-02-08 20:10:00,24.4,23.2,29.97,East,98,0.0,6.0,95,0.00,,,0.00,meteohub,2013-02-09 04:10:00,
2013-02-08 20:16:00,24.4,23.2,29.97,ESE,115,0.0,6.0,95,0.00,,,0.00,meteohub,2013-02-09 04:16:00,
2013-02-08 20:21:00,24.4,23.2,29.97,SSW,210,1.0,5.0,95,0.00,,,0.00,meteohub,2013-02-09 04:21:00,
2013-02-08 20:26:00,24.4,23.2,29.97,SSW,204,0.0,3.0,95,0.00,,,0.00,meteohub,2013-02-09 04:26:00,
2013-02-08 20:31:00,24.4,23.2,29.97,SW,224,1.0,3.0,95,0.00,,,0.00,meteohub,2013-02-09 04:31:00,
2013-02-08 20:36:00,24.4,23.2,29.98,SE,146,2.0,3.0,95,0.00,,,0.00,meteohub,2013-02-09 04:36:00,
2013-02-08 20:41:00,24.4,23.2,29.98,SE,141,2.0,3.0,95,0.00,,,0.00,meteohub,2013-02-09 04:41:00,
2013-02-08 20:46:00,24.4,23.2,29.98,WNW,283,0.0,4.0,95,0.00,,,0.00,meteohub,2013-02-09 04:46:00,
2013-02-08 20:51:00,24.3,23.0,29.98,ESE,103,0.0,4.0,95,0.00,,,0.00,meteohub,2013-02-09 04:51:00,
2013-02-08 20:56:00,24.3,23.0,29.99,East,94,1.0,3.0,95,0.00,,,0.00,meteohub,2013-02-09 04:56:00,
2013-02-08 21:00:00,24.3,23.0,29.99,SSE,148,2.0,2.0,95,0.00,,,0.00,meteohub,2013-02-09 05:00:00,
2013-02-08 21:01:00,24.3,23.0,29.99,SSE,148,0.0,2.0,95,0.00,,,0.00,meteohub,2013-02-09 05:01:00,
2013-02-08 21:03:00,24.3,23.0,29.99,WNW,293,0.0,2.0,95,0.00,,,0.00,meteohub,2013-02-09 05:03:00,
2013-02-08 21:08:00,24.3,23.0,29.99,WNW,294,0.0,2.0,95,0.00,,,0.00,meteohub,2013-02-09 05:08:00,
2013-02-08 21:13:00,24.4,23.2,30.00,WNW,294,0.0,2.0,95,0.00,,,0.00,meteohub,2013-02-09 05:13:00,
2013-02-08 21:18:00,24.4,23.5,30.00,WNW,292,0.0,2.0,96,0.00,,,0.00,meteohub,2013-02-09 05:18:00,
2013-02-08 21:23:00,24.4,23.5,30.00,WNW,292,0.0,0.0,96,0.00,,,0.00,meteohub,2013-02-09 05:23:00,
2013-02-08 21:28:00,24.4,23.5,29.99,WNW,292,0.0,0.0,96,0.00,,,0.00,meteohub,2013-02-09 05:28:00,
2013-02-08 21:33:00,24.4,23.5,29.99,WNW,292,0.0,0.0,96,0.00,,,0.00,meteohub,2013-02-09 05:33:00,
2013-02-08 21:38:00,24.4,23.2,29.99,WNW,292,0.0,0.0,95,0.00,,,0.00,meteohub,2013-02-09 05:38:00,
2013-02-08 21:43:00,24.3,23.0,29.99,WNW,292,0.0,0.0,95,0.00,,,0.00,meteohub,2013-02-09 05:43:00,
2013-02-08 21:48:00,23.9,22.6,29.99,WNW,292,0.0,0.0,95,0.00,,,0.00,meteohub,2013-02-09 05:48:00,
2013-02-08 21:53:00,23.7,22.5,29.99,WNW,293,0.0,0.0,95,0.00,,,0.00,meteohub,2013-02-09 05:53:00,
2013-02-08 21:58:00,23.5,22.3,30.00,WNW,294,0.0,0.0,95,0.00,,,0.00,meteohub,2013-02-09 05:58:00,
2013-02-08 22:03:00,23.5,22.3,30.00,NW,316,0.0,0.0,95,0.00,,,0.00,meteohub,2013-02-09 06:03:00,
2013-02-08 22:09:00,23.7,22.8,30.00,NE,36,0.0,3.0,96,0.00,,,0.00,meteohub,2013-02-09 06:09:00,
2013-02-08 22:14:00,23.7,22.8,30.01,WNW,302,0.0,3.0,96,0.00,,,0.00,meteohub,2013-02-09 06:14:00,
2013-02-08 22:19:00,23.7,22.8,30.01,SW,225,0.0,3.0,96,0.00,,,0.00,meteohub,2013-02-09 06:19:00,
2013-02-08 22:24:00,23.7,22.5,30.01,SW,220,0.0,3.0,95,0.00,,,0.00,meteohub,2013-02-09 06:24:00,
2013-02-08 22:29:00,23.7,22.5,30.01,SW,222,0.0,3.0,95,0.00,,,0.00,meteohub,2013-02-09 06:29:00,
2013-02-08 22:34:00,23.7,22.5,30.01,SE,131,0.0,1.0,95,0.00,,,0.00,meteohub,2013-02-09 06:34:00,
2013-02-08 22:39:00,23.7,22.5,30.01,SE,131,0.0,1.0,95,0.00,,,0.00,meteohub,2013-02-09 06:39:00,
2013-02-08 22:44:00,23.5,22.3,30.01,SE,131,0.0,0.0,95,0.00,,,0.00,meteohub,2013-02-09 06:44:00,
2013-02-08 22:49:00,23.4,22.1,30.01,SE,131,0.0,0.0,95,0.00,,,0.00,meteohub,2013-02-09 06:49:00,
2013-02-08 22:54:00,23.0,21.7,30.01,SE,131,0.0,0.0,95,0.00,,,0.00,meteohub,2013-02-09 06:54:00,
2013-02-08 22:59:00,22.6,21.4,30.01,SE,131,0.0,0.0,95,0.00,,,0.00,meteohub,2013-02-09 06:59:00,
2013-02-08 23:04:00,22.6,21.4,30.01,SE,131,0.0,0.0,95,0.00,,,0.00,meteohub,2013-02-09 07:04:00,
2013-02-08 23:09:00,22.5,21.2,30.01,SE,124,0.0,0.0,95,0.00,,,0.00,meteohub,2013-02-09 07:09:00,
2013-02-08 23:14:00,22.5,21.2,30.01,SE,124,0.0,0.0,95,0.00,,,0.00,meteohub,2013-02-09 07:14:00,
2013-02-08 23:19:00,22.3,21.0,30.01,SE,124,0.0,0.0,95,0.00,,,0.00,meteohub,2013-02-09 07:19:00,
2013-02-08 23:24:00,22.3,21.0,30.01,SE,124,0.0,0.0,95,0.00,,,0.00,meteohub,2013-02-09 07:24:00,
2013-02-08 23:29:00,22.5,21.2,30.01,SE,124,0.0,0.0,95,0.00,,,0.00,meteohub,2013-02-09 07:29:00,
2013-02-08 23:34:00,22.5,21.2,30.01,SE,124,0.0,0.0,95,0.00,,,0.00,meteohub,2013-02-09 07:34:00,
2013-02-08 23:39:00,22.3,21.0,30.02,SE,124,0.0,0.0,95,0.00,,,0.00,meteohub,2013-02-09 07:39:00,
2013-02-08 23:44:00,22.5,21.2,30.01,SE,124,0.0,0.0,95,0.00,,,0.00,meteohub,2013-02-09 07:44:00,
2013-02-08 23:50:00,22.5,21.2,30.02,NNE,26,0.0,0.0,95,0.00,,,0.00,meteohub,2013-02-09 07:50:00,
2013-02-08 23:55:00,22.5,21.2,30.02,NNW,336,0.0,0.0,95,0.00,,,0.00,meteohub,2013-02-09 07:55:00,